Theta_e
316 322 323 327 322 311 310 314 314 316 316 313 313 315 314 314 312 311 312 311 309 311 314 313 312 311 310 309 307 304 304 302 301 301 301 300 300 300 299 299 298 297 297 296 296 296 295 295 294 292 292 292 292 292 292 292 292 292 292 292 292 292 292 292 292 292 291 291 291 291 291 291 292 292 292 292 292 293 293 293 293 293 293 294 294 295
318 321 325 327 318 310 310 312 313 313 311 312 313 314 315 315 313 312 312 311 308 310 314 313 311 311 310 309 306 303 303 301 300 300 300 300 300 300 299 298 297 296 296 296 295 295 295 295 293 292 292 292 292 292 291 292 292 292 292 292 292 292 292 292 291 291 291 291 290 291 291 291 291 292 292 292 292 292 292 292 292 292 293 294 294 295
320 323 325 320 311 309 312 312 312 312 312 314 314 313 315 315 315 314 313 311 309 309 314 313 310 309 309 310 306 302 302 301 301 301 300 300 300 299 299 298 297 296 296 295 295 295 295 294 293 292 292 291 292 291 291 292 292 292 292 291 292 292 291 291 291 290 290 290 290 290 290 291 291 291 291 291 291 291 292 292 292 292 293 293 294 294
322 326 321 312 308 309 312 313 313 312 313 315 314 314 316 316 316 316 314 312 310 309 312 311 309 308 307 309 307 302 302 302 301 301 301 300 300 299 299 298 296 296 296 295 295 295 294 294 293 292 292 291 291 291 291 292 291 291 291 291 291 291 291 290 290 290 290 289 289 289 290 290 290 290 290 290 290 291 291 291 291 292 292 293 294 294
320 319 312 309 312 312 313 315 315 314 315 318 318 315 316 315 315 316 315 312 311 311 313 310 308 310 308 308 306 302 301 301 300 300 300 300 299 299 298 297 296 296 296 295 295 294 294 293 293 292 292 291 291 291 291 291 291 291 291 291 291 290 290 289 289 289 289 289 288 288 289 289 288 288 288 288 288 289 289 289 290 291 292 292 293 293
316 312 309 313 315 315 316 318 319 318 317 319 320 318 317 315 313 316 315 312 312 313 313 309 309 313 311 308 305 302 301 301 300 299 298 299 299 298 297 296 296 296 295 295 294 294 294 293 293 292 291 291 291 291 291 291 291 291 291 290 290 290 289 289 289 289 288 288 288 287 287 287 286 286 286 286 286 286 286 287 287 289 290 291 292 292
313 309 311 317 318 316 317 318 320 319 315 316 318 317 315 312 311 314 313 311 313 313 311 310 310 310 310 309 305 302 302 301 300 298 297 298 299 297 296 296 296 295 295 295 294 294 293 293 292 292 291 291 291 291 291 290 290 290 290 290 289 289 289 288 288 288 288 287 287 286 285 285 285 285 285 285 285 285 285 285 286 287 288 289 291 292
313 310 313 315 316 316 315 316 318 317 316 318 315 311 311 310 311 313 311 311 312 311 309 309 309 308 308 309 305 302 302 301 300 299 298 297 298 297 296 296 295 295 294 294 294 293 293 293 292 291 291 291 291 291 290 290 290 290 290 289 289 288 288 288 288 288 287 287 286 285 285 285 285 284 284 285 285 285 284 285 285 285 286 288 290 291
312 313 316 316 315 316 317 317 317 316 315 316 312 309 309 310 311 311 311 310 309 308 308 309 309 308 310 311 306 302 303 302 300 299 298 296 296 296 296 296 295 294 294 294 293 293 293 292 292 291 291 291 291 291 290 290 290 290 289 289 288 288 288 288 287 287 287 286 285 284 284 284 284 284 284 284 284 284 284 284 284 285 285 286 288 290
311 312 314 316 316 316 318 317 315 316 313 310 309 309 311 311 310 309 309 308 307 307 309 309 308 308 310 313 308 303 304 304 300 298 297 296 296 296 295 295 295 294 294 293 293 293 292 292 291 291 291 291 291 290 290 289 289 289 289 288 288 288 288 287 287 287 286 286 284 284 283 283 283 283 283 283 283 284 284 284 284 284 286 286 287 289
310 307 307 311 312 312 313 311 308 311 309 307 308 311 312 313 310 309 309 308 308 311 311 309 309 307 308 311 307 304 306 305 301 297 297 295 295 296 295 295 294 294 294 293 293 293 292 292 291 291 291 291 291 290 289 289 289 289 289 288 288 288 287 287 287 286 286 285 284 283 283 282 282 282 282 282 283 283 283 283 284 284 285 286 287 288
311 309 309 308 308 308 309 308 308 308 307 308 311 311 312 315 314 311 311 309 310 316 314 308 307 306 307 309 307 305 305 303 300 298 296 295 294 295 295 294 294 294 294 293 293 292 292 291 291 291 291 291 290 290 289 289 289 289 288 288 288 288 288 287 286 286 285 284 283 282 282 282 281 281 281 281 282 282 283 283 283 283 283 284 285 286
316 316 310 307 307 308 310 311 311 311 309 311 313 310 311 316 317 315 314 311 310 314 310 304 305 306 305 307 308 306 303 300 299 297 296 295 294 295 295 294 294 294 293 293 292 292 291 291 291 291 291 291 290 289 289 289 288 288 288 288 287 287 287 287 286 286 285 284 283 282 282 281 281 281 281 281 281 282 282 282 282 282 282 283 284 285
321 318 310 308 309 308 310 312 315 315 311 311 312 312 313 314 315 315 315 313 314 315 308 302 303 306 306 306 306 304 300 297 297 296 296 295 294 295 294 294 294 293 293 292 292 292 291 291 291 291 291 290 290 289 289 289 288 288 288 288 287 287 287 286 286 285 285 284 283 282 281 281 280 280 280 280 280 281 281 281 281 281 281 281 282 284
319 322 317 314 311 309 310 313 318 318 312 310 311 312 313 313 315 316 315 315 315 314 309 302 304 308 309 306 302 299 296 295 296 295 295 295 294 294 294 294 294 293 293 292 292 292 291 291 291 290 290 290 289 289 288 288 288 288 288 287 286 286 286 286 285 285 284 284 283 282 281 281 280 280 279 279 279 279 279 280 280 280 280 280 281 282
316 322 315 307 306 308 309 308 309 312 312 310 307 308 310 312 313 313 312 311 309 308 307 304 306 309 306 301 297 295 295 294 295 294 294 295 294 294 294 293 293 293 293 292 292 292 291 291 291 290 290 289 289 289 288 288 288 288 287 287 286 286 285 285 285 284 283 283 283 282 281 281 280 279 278 278 278 278 278 278 279 279 279 279 279 281
317 320 310 303 304 305 304 303 302 308 313 309 305 308 310 308 307 308 309 307 305 306 307 305 307 307 304 300 295 295 296 295 294 293 293 294 294 294 294 293 293 293 293 292 292 291 291 291 290 290 289 289 289 288 288 288 288 287 287 286 285 285 285 285 284 283 283 282 283 283 282 281 280 279 278 277 276 277 277 277 277 278 278 278 279 280
318 317 309 306 308 303 298 301 301 301 306 308 308 309 309 305 304 306 308 307 305 307 307 306 306 305 306 304 297 295 296 295 294 294 293 293 294 294 293 293 293 293 292 292 291 291 291 290 290 290 289 289 288 288 288 288 287 287 286 285 285 285 285 284 284 284 283 282 283 283 282 281 280 279 278 277 276 276 276 276 276 276 277 278 279 279
317 318 311 304 306 303 299 303 305 300 300 305 306 305 305 307 306 305 306 307 308 309 309 308 306 304 305 304 298 295 296 295 294 294 294 294 293 293 293 293 293 293 292 291 291 291 291 290 290 289 289 289 288 288 287 287 287 287 286 285 284 284 284 283 283 282 283 282 282 282 282 281 280 279 278 277 276 275 275 275 275 275 276 277 278 278
314 319 316 303 301 304 302 305 310 306 300 300 301 301 302 305 306 305 305 306 309 309 310 310 309 306 305 303 299 296 296 295 294 295 295 294 293 293 293 293 292 292 292 291 291 291 290 290 289 289 289 288 288 287 287 287 286 286 286 285 284 284 284 283 282 281 281 282 282 282 282 281 280 279 279 278 276 275 274 274 275 275 276 277 277 277
311 316 316 305 301 304 306 306 309 309 304 300 301 301 301 300 303 305 304 303 306 307 308 308 308 308 305 302 300 298 297 296 295 296 297 294 293 293 293 292 292 292 291 291 291 290 290 289 289 289 289 288 287 287 287 286 286 285 285 284 283 283 283 283 282 281 281 281 281 281 282 282 281 280 279 278 276 274 274 274 274 274 275 276 276 277
312 314 314 309 305 307 308 306 305 307 307 303 302 302 302 301 302 305 305 303 303 304 306 306 307 309 305 300 299 299 298 296 295 296 296 294 293 293 293 292 292 292 291 291 291 290 289 289 289 289 288 288 287 287 287 286 286 285 285 284 283 283 282 281 281 281 280 281 281 281 281 281 281 280 278 278 276 275 274 274 274 274 274 275 276 277
309 310 310 309 310 308 306 303 302 303 304 303 303 304 303 302 302 305 307 306 303 301 302 303 304 305 301 298 298 298 296 295 295 295 294 293 293 293 292 292 292 292 291 291 290 290 289 289 289 288 288 287 287 287 286 286 285 285 284 284 283 283 282 281 281 280 280 280 281 281 281 280 280 279 278 277 276 275 275 274 274 274 273 274 275 277
306 310 309 310 312 308 301 298 298 299 300 301 301 301 302 302 302 304 305 305 304 302 301 301 302 302 300 298 298 296 295 295 295 295 294 293 293 293 292 292 292 291 291 291 290 290 289 289 288 288 288 287 287 287 286 285 285 284 284 284 283 283 282 281 281 280 280 280 281 282 281 280 279 279 278 277 276 275 275 275 274 274 274 273 274 275
309 312 311 311 314 312 305 301 301 299 298 298 300 300 300 301 302 302 301 302 302 302 301 302 303 303 299 298 297 295 295 296 295 295 294 293 293 292 292 292 291 291 291 290 290 289 289 289 288 288 287 286 286 286 285 285 284 284 284 283 283 282 282 281 281 280 280 280 281 281 281 279 277 277 278 278 276 274 274 274 274 274 274 274 274 275
311 313 312 313 315 315 314 312 310 305 299 297 299 299 300 300 300 300 301 301 301 301 301 301 302 302 298 297 298 297 297 297 295 294 293 293 293 292 292 292 291 291 291 290 290 289 289 289 288 287 287 286 286 285 285 285 284 284 284 283 282 281 282 282 281 280 280 280 281 281 282 281 279 277 277 277 277 275 273 273 273 273 274 273 273 274
311 309 308 312 315 314 315 314 310 305 301 301 300 298 299 300 300 300 301 301 301 301 301 301 301 302 300 298 298 296 296 297 296 293 292 292 292 292 291 291 291 291 291 290 290 289 289 288 288 287 286 286 286 285 284 284 284 284 283 283 282 282 281 281 280 280 280 280 281 282 281 280 278 278 277 275 275 274 272 271 271 272 272 272 272 273
309 308 306 309 310 311 313 312 308 304 303 304 303 299 298 299 300 301 301 301 301 301 302 303 302 302 302 300 299 297 296 297 296 293 292 292 292 292 291 291 291 291 291 290 290 289 289 288 287 287 286 286 285 285 284 283 283 283 283 282 282 281 281 280 279 279 280 280 281 281 280 278 277 277 276 274 274 273 272 271 270 271 271 271 271 272
308 308 307 308 307 307 309 309 307 305 304 304 303 300 298 298 299 300 300 300 300 301 302 304 303 302 302 300 299 298 297 297 296 294 293 293 292 291 292 291 291 291 290 290 289 289 288 288 287 287 286 285 285 284 284 283 283 283 283 282 281 281 280 279 279 279 280 280 281 280 280 280 278 277 275 274 273 272 271 271 270 270 270 271 271 271
305 307 307 307 307 307 307 306 305 304 304 304 303 300 299 298 299 299 299 299 299 299 300 301 301 300 300 300 299 299 297 296 295 294 293 292 292 291 291 291 291 290 290 290 289 289 288 287 287 286 286 285 285 284 283 283 283 283 283 281 281 280 279 279 279 279 279 280 280 280 280 279 277 276 275 275 273 271 270 269 270 270 270 270 270 270
303 306 306 305 306 306 306 305 304 303 302 302 302 301 300 299 299 298 298 298 298 298 298 298 299 299 299 299 298 297 296 295 294 293 292 292 291 291 291 291 291 290 290 289 289 288 288 287 286 286 285 285 284 283 283 282 282 282 282 281 280 279 279 278 278 279 279 279 280 280 279 278 277 276 275 275 274 272 271 270 270 270 270 270 270 270
302 304 304 303 306 307 305 302 302 300 299 299 300 300 299 299 299 299 298 298 298 298 298 298 298 298 298 299 298 296 296 294 292 291 291 291 291 291 291 291 290 290 290 289 289 288 287 286 286 285 285 284 284 283 282 282 282 281 281 280 279 279 279 279 278 279 279 280 280 280 279 279 277 274 273 272 271 270 270 271 271 270 270 271 271 270
301 303 304 303 306 306 301 298 298 298 300 302 302 300 299 299 299 299 299 299 298 298 298 298 299 299 299 299 298 297 296 294 292 291 291 291 291 291 291 290 290 289 289 289 288 287 287 286 285 284 284 284 283 283 282 281 281 281 280 279 278 278 278 279 278 278 279 280 280 279 279 278 277 276 276 275 272 270 270 270 271 272 272 272 272 272
300 302 303 303 305 303 297 297 298 300 306 307 304 302 301 300 299 300 300 300 299 298 298 299 299 299 298 298 298 297 295 294 292 292 291 291 291 291 290 290 289 289 289 289 288 287 286 286 285 284 284 284 283 282 281 280 280 280 279 278 278 278 278 278 278 278 279 280 280 279 278 277 276 275 275 275 275 273 272 271 271 272 272 272 272 272
300 301 302 303 303 300 296 297 301 306 308 305 300 300 300 300 299 300 299 299 299 299 298 298 298 298 298 297 296 295 293 292 292 291 291 291 291 290 290 289 289 289 289 288 287 286 286 285 285 285 284 283 282 281 280 280 280 280 279 278 277 277 277 277 278 278 279 279 280 279 278 277 276 275 274 273 273 272 272 272 272 272 272 272 272 272
301 301 301 301 301 299 298 300 305 308 305 303 300 297 296 297 298 298 299 299 299 298 298 298 297 298 297 294 292 293 292 291 291 290 290 291 290 290 290 289 289 289 288 287 286 286 286 285 285 284 283 282 281 280 280 280 279 279 279 278 277 277 277 277 277 278 279 280 280 279 279 279 278 276 274 273 272 271 272 272 272 273 273 273 274 273
302 301 301 301 301 302 301 301 304 305 304 305 303 297 295 297 297 298 300 300 299 298 297 297 297 297 296 292 290 291 291 291 291 290 289 289 290 290 290 290 289 289 287 286 286 286 285 285 284 284 283 282 281 280 280 279 278 278 278 278 277 277 277 277 277 278 279 280 280 280 280 278 276 274 273 272 272 272 272 273 273 273 273 273 274 275
301 301 301 302 302 302 302 302 303 304 305 306 302 297 296 296 296 297 299 298 298 298 296 296 296 296 294 291 289 290 291 291 292 290 288 288 289 289 290 290 289 287 286 286 286 285 285 285 284 283 283 282 281 280 279 278 278 277 277 277 277 276 276 277 277 278 279 280 280 280 279 279 277 275 273 273 272 271 272 273 273 274 274 274 274 275
299 300 300 302 302 301 301 303 303 304 306 303 299 296 295 294 295 298 300 299 298 296 295 295 296 295 293 290 289 290 292 293 294 291 289 289 289 289 290 289 288 287 286 286 285 285 285 284 284 283 282 281 280 279 278 278 277 277 276 276 276 276 276 276 277 278 279 279 280 279 279 279 277 274 273 273 272 272 272 272 273 274 275 276 275 275
298 299 299 300 302 301 301 302 302 303 304 299 295 293 293 293 296 300 304 304 297 293 293 294 293 292 291 289 290 292 293 293 293 291 289 289 290 290 290 288 287 286 286 285 285 285 285 284 283 282 281 280 280 278 277 277 277 276 276 275 275 275 275 276 277 278 278 279 279 279 278 277 275 273 272 272 272 271 271 272 273 275 276 277 276 276
297 298 298 299 300 300 301 301 301 302 301 296 293 292 292 294 298 301 305 302 294 290 292 293 292 291 291 290 290 292 292 291 291 291 290 290 290 290 289 287 286 286 285 285 285 285 284 283 282 281 280 279 279 278 277 277 277 276 276 275 274 275 275 276 277 277 278 279 278 278 278 277 274 272 272 272 271 271 272 273 273 274 275 277 277 278
297 297 298 298 299 299 300 301 300 301 300 295 292 292 294 298 301 300 299 296 292 291 293 293 292 291 291 291 291 291 291 291 291 290 290 290 290 289 288 286 286 286 285 285 285 284 284 283 282 280 279 278 278 277 277 277 277 276 275 274 274 274 275 276 276 277 278 278 278 277 278 278 275 272 272 273 272 272 274 275 273 273 275 277 278 279
298 297 297 298 298 298 298 298 299 301 300 294 292 293 295 299 300 296 293 293 293 293 293 292 292 292 292 292 291 291 291 291 290 290 290 290 289 288 287 286 286 285 285 285 284 283 283 282 281 280 279 278 277 277 276 276 276 275 274 274 274 274 275 275 276 277 278 278 278 277 278 278 276 272 272 274 274 274 275 274 273 274 276 277 278 279
299 299 298 298 298 298 298 299 299 299 297 293 293 295 295 297 297 295 294 293 292 293 293 292 292 292 292 292 292 291 291 290 290 290 289 289 289 287 286 286 285 285 284 284 283 283 282 281 281 280 279 277 276 276 275 275 275 275 274 274 274 274 275 275 276 277 277 277 277 277 277 278 276 273 272 274 275 275 275 273 273 275 277 276 277 278
302 300 300 300 299 299 300 300 298 296 294 293 295 296 295 295 295 296 296 294 292 292 293 292 292 292 292 292 291 291 291 290 290 290 289 289 288 287 286 286 285 285 284 283 283 282 281 281 280 279 278 277 276 275 275 274 274 274 274 274 273 274 274 275 276 276 277 277 277 276 276 277 276 274 273 274 274 274 274 272 272 273 275 275 275 276
301 299 300 301 299 299 300 299 296 294 293 293 295 295 295 294 295 295 295 294 293 293 293 293 293 292 292 292 291 291 291 290 290 289 289 288 287 286 286 285 284 284 284 283 282 282 281 281 280 279 278 277 276 275 274 274 274 274 274 274 273 273 274 275 275 276 276 277 276 276 276 276 276 275 275 275 275 274 273 272 271 271 272 273 273 274
300 298 299 300 300 301 302 300 297 295 293 293 294 294 294 294 294 294 294 294 294 293 293 293 293 292 291 291 291 290 290 290 289 289 288 287 286 286 285 284 284 283 283 282 282 282 281 281 280 279 278 277 276 275 274 273 273 273 273 273 273 273 273 274 275 276 276 276 275 275 275 274 274 274 275 275 275 275 274 272 271 271 271 271 271 272
301 299 298 299 300 301 302 299 295 294 294 293 293 294 294 294 294 293 293 294 293 293 293 292 292 292 291 291 291 290 290 289 289 289 288 287 286 285 285 284 283 283 282 282 282 281 281 280 279 278 277 277 276 274 274 273 273 272 273 273 273 273 273 274 274 275 275 275 275 274 274 274 273 273 274 274 274 274 273 272 271 270 270 270 270 271
300 299 299 299 299 300 300 297 294 294 294 293 293 293 294 295 294 293 293 293 293 293 292 292 291 291 291 291 290 290 289 289 289 288 287 286 285 285 284 283 283 282 282 282 281 280 280 279 279 278 277 276 275 274 273 273 272 272 272 272 273 273 273 273 274 274 275 274 274 274 274 274 273 273 273 274 275 275 273 271 269 269 270 271 271 271
299 300 299 299 299 300 301 298 295 296 296 294 292 293 294 294 294 293 293 293 292 292 292 292 291 291 290 290 290 289 289 289 288 288 287 286 285 285 284 283 283 282 282 281 280 279 279 278 278 277 276 275 274 274 273 272 272 272 272 272 272 272 272 272 273 274 274 274 273 273 273 274 273 273 273 274 275 274 274 275 273 270 269 271 272 272
301 302 300 300 302 302 301 298 296 297 298 295 293 294 294 294 293 293 293 293 292 292 292 291 291 290 290 290 289 289 289 289 288 288 287 286 285 285 284 283 283 282 281 281 280 279 278 278 277 277 276 275 274 273 272 272 272 272 272 272 272 271 271 272 272 273 273 273 273 272 273 273 273 273 273 273 273 273 273 276 277 275 272 272 272 273
Wind_Speed
3 4 4 2 4 4 2 4 5 5 4 3 3 3 5 6 6 6 5 3 3 3 6 7 6 7 5 8 11 17 18 18 19 19 20 19 16 13 11 8 5 4 3 6 7 8 12 15 21 27 29 29 29 31 33 34 35 35 37 39 40 39 40 43 47 49 50 50 52 53 54 54 54 54 53 53 51 50 50 49 48 48 46 45 43 43
4 4 4 6 7 6 4 5 4 3 2 2 3 4 6 5 7 8 5 3 2 1 5 5 6 8 7 8 11 16 14 15 21 20 19 20 16 14 11 9 6 4 1 5 7 8 12 15 21 27 29 30 30 31 32 33 34 35 37 38 39 40 42 46 47 49 49 50 51 51 52 53 53 53 52 53 53 51 51 50 48 47 46 45 44 42
4 4 7 8 6 3 3 3 4 3 3 3 3 2 4 4 5 7 3 1 1 0 4 5 7 8 9 10 9 17 16 15 23 23 21 21 18 15 11 10 7 3 0 4 8 9 12 16 21 26 29 30 29 31 31 32 34 36 38 38 39 42 45 47 47 47 48 50 51 50 50 49 50 52 52 52 51 49 50 50 48 46 44 44 43 42
4 5 7 7 6 2 1 1 3 2 3 4 4 2 4 4 2 4 4 4 4 2 4 7 10 8 8 9 6 14 17 16 19 21 20 20 17 14 12 11 7 3 1 4 8 8 11 15 20 25 29 29 29 31 32 33 36 37 37 38 40 44 46 46 46 46 48 51 52 50 48 46 47 50 51 51 49 46 45 46 45 44 42 42 43 43
7 7 4 6 5 4 1 1 2 3 3 4 5 5 6 4 4 6 3 5 5 4 5 7 9 6 7 9 5 6 11 13 17 19 18 18 16 13 13 11 7 4 2 4 6 6 9 14 19 24 27 28 29 31 32 35 37 37 37 39 42 45 45 45 45 47 50 52 52 51 52 52 52 54 54 53 51 49 48 48 46 42 40 41 44 44
7 4 4 5 2 3 3 2 3 6 3 5 5 7 6 4 4 5 4 5 5 5 4 1 4 6 3 6 6 4 6 9 13 15 17 18 17 15 15 11 6 3 1 4 4 5 9 13 18 24 27 29 30 30 32 35 37 36 38 41 43 45 45 45 46 48 50 51 53 53 53 53 54 57 57 53 51 52 54 54 51 48 44 41 42 43
3 0 4 5 3 2 2 4 4 6 3 3 4 4 5 4 1 4 3 3 2 4 3 3 1 7 2 4 8 7 8 9 9 10 14 19 19 18 15 11 6 2 1 3 4 7 10 14 20 25 27 29 29 30 33 36 37 37 39 42 43 44 44 45 47 48 49 52 55 53 50 49 50 52 55 54 51 50 53 53 51 50 49 45 42 42
2 2 3 4 4 2 3 4 5 6 5 4 4 4 4 1 4 5 2 3 4 2 4 2 3 7 7 5 8 11 10 9 8 8 11 18 21 18 14 10 5 0 2 3 5 8 10 15 21 25 28 28 28 30 34 37 38 38 41 43 43 43 45 46 48 49 50 52 53 51 48 49 50 50 52 53 51 50 51 51 49 49 49 46 43 41
2 2 3 4 3 3 5 5 6 7 3 5 5 4 3 4 6 5 4 6 2 3 5 6 5 5 8 4 5 9 10 9 11 11 10 16 20 18 15 10 3 1 1 3 5 7 11 17 22 25 28 28 28 31 36 38 38 39 42 43 43 44 46 47 48 49 51 51 50 47 46 49 50 49 49 49 51 51 50 50 50 49 45 42 41 38
2 3 5 7 4 5 6 5 6 7 2 4 4 2 2 4 5 4 5 4 2 1 7 7 6 4 6 2 4 6 8 10 11 10 10 16 21 18 15 10 2 1 0 3 4 7 12 18 22 25 27 27 29 34 38 39 39 41 44 44 44 46 47 48 49 50 52 51 48 46 46 48 50 49 48 48 50 49 48 49 49 46 40 38 38 38
2 2 3 4 4 5 5 3 3 4 3 1 2 2 4 4 2 1 2 1 3 4 8 8 10 7 5 3 6 6 6 9 10 9 10 15 20 19 14 8 4 2 1 2 4 8 14 19 24 26 27 28 31 36 39 39 40 43 45 45 47 48 49 49 50 51 52 51 48 46 46 47 48 48 47 46 46 47 47 47 45 42 40 38 37 37
3 1 2 2 4 4 5 1 1 1 2 3 3 3 4 5 3 4 3 3 2 6 6 6 8 7 6 5 6 7 5 8 13 13 13 13 18 20 13 8 5 3 2 2 5 10 17 24 27 27 27 29 33 38 39 39 41 44 45 46 49 50 51 52 52 53 53 51 49 48 47 47 47 47 45 44 45 45 44 43 42 43 44 44 40 36
3 4 3 1 3 5 6 2 3 4 4 4 4 4 3 4 4 3 3 0 3 7 4 2 2 4 9 7 6 9 7 8 14 17 18 17 19 19 12 8 6 3 3 2 7 14 22 26 26 25 27 30 35 38 39 40 43 45 46 47 49 52 52 53 54 54 54 53 51 49 48 47 47 46 43 43 43 42 41 42 45 46 46 46 45 40
4 5 2 1 2 6 8 4 2 1 2 4 3 3 2 1 3 5 4 3 4 5 4 1 2 3 7 5 6 9 7 9 16 20 22 22 20 17 11 9 7 5 3 4 11 19 24 24 23 24 27 32 36 37 38 42 45 45 47 48 50 52 53 54 55 55 55 55 53 50 49 48 47 46 44 42 41 42 43 45 45 45 43 43 44 43
2 6 3 3 2 6 7 4 5 4 4 4 4 5 4 3 2 5 3 4 6 5 4 1 1 4 3 4 5 5 9 13 20 23 22 20 17 14 12 10 7 5 2 8 15 19 21 21 21 24 29 33 35 36 39 43 45 45 47 48 50 52 53 54 55 56 56 56 55 52 51 50 48 47 45 43 41 41 42 42 42 43 43 44 44 44
4 6 4 0 1 6 4 3 4 5 2 3 2 4 2 4 4 4 3 3 3 6 5 3 3 5 4 2 3 6 10 13 18 20 21 19 16 14 12 9 6 2 5 12 16 18 18 19 22 26 30 33 33 36 40 43 44 44 46 48 50 51 53 54 55 55 55 55 56 55 54 53 50 48 47 44 42 41 42 42 43 45 46 46 45 44
2 5 2 2 2 2 2 1 1 2 1 1 2 3 4 4 4 1 2 0 2 5 6 3 4 5 0 1 1 6 7 8 10 12 16 17 15 14 11 8 3 3 8 11 13 15 16 19 23 27 31 31 33 38 42 43 43 44 45 47 49 51 53 54 55 55 55 55 57 57 56 55 52 50 49 46 44 44 44 43 43 44 46 47 46 42
2 4 3 2 1 3 1 0 2 1 2 4 3 4 3 2 2 2 1 3 2 5 6 3 7 8 2 2 2 5 7 8 8 7 11 14 14 13 10 6 1 3 6 9 11 13 16 20 25 29 30 30 33 40 42 42 43 43 45 46 48 51 53 54 55 56 57 57 57 58 58 57 55 53 51 49 47 45 45 44 43 45 47 47 44 39
1 3 4 1 2 2 1 2 2 2 2 4 3 2 1 1 2 2 2 2 2 6 7 2 6 7 5 5 6 9 11 12 10 8 8 10 12 13 10 7 3 2 4 8 10 13 17 22 27 29 30 31 36 41 41 41 42 44 45 46 47 50 51 52 53 55 57 57 56 57 58 58 57 56 54 53 50 47 45 44 44 45 45 43 40 36
2 1 4 1 1 2 2 1 3 2 1 3 1 2 1 2 3 2 2 2 3 6 7 5 6 4 5 7 12 14 14 14 11 9 7 9 13 14 11 9 6 3 4 8 10 14 20 23 27 29 30 34 39 41 41 41 43 44 45 47 48 50 51 52 52 53 55 56 56 58 59 59 59 57 56 54 50 47 45 44 43 43 44 42 38 36
2 2 3 2 2 1 2 4 6 7 4 3 2 2 2 2 1 1 2 3 3 7 5 5 9 6 3 4 11 15 14 13 12 9 7 10 15 15 12 10 6 2 4 7 11 17 21 24 27 29 32 37 40 41 41 41 42 44 46 47 48 50 51 53 53 54 55 55 56 58 59 60 59 57 57 54 50 47 45 44 43 42 43 42 39 36
2 3 4 2 1 3 5 6 7 8 7 6 6 6 7 5 3 2 5 3 4 6 3 4 12 9 3 3 7 10 10 10 11 10 7 11 17 15 12 10 4 2 4 7 13 19 23 25 28 31 35 39 41 41 41 42 43 44 46 48 49 50 50 52 54 54 55 56 57 59 60 60 59 57 56 54 49 47 45 44 42 42 43 42 38 36
2 2 3 5 6 5 5 3 2 3 3 2 4 5 6 6 6 5 7 4 3 3 2 5 13 9 2 5 6 7 8 10 14 13 10 14 18 15 10 7 2 2 4 9 15 20 23 26 30 34 38 41 42 41 42 43 44 45 47 48 50 51 51 52 54 55 54 56 57 59 59 58 58 56 55 55 51 48 46 45 44 42 42 42 38 35
2 2 3 6 6 3 2 2 4 4 3 1 4 4 5 7 8 8 6 2 1 3 4 6 11 8 1 2 4 7 9 13 16 16 14 16 16 12 8 5 2 2 5 12 17 21 25 28 33 37 40 42 42 42 43 44 45 46 47 49 50 52 53 53 55 56 55 57 59 60 59 58 58 57 55 54 53 50 47 45 45 44 42 41 40 37
5 2 3 2 6 5 3 2 3 2 1 3 4 5 7 9 6 3 4 1 2 11 11 8 11 9 2 1 3 7 8 9 12 14 14 15 14 11 8 5 3 3 8 15 19 22 26 31 35 38 39 41 41 42 43 44 46 47 48 50 50 52 54 54 55 56 56 58 60 60 60 59 57 56 55 55 54 50 48 46 46 45 42 40 39 38
7 2 5 4 6 8 8 7 4 2 3 3 3 7 10 11 10 6 3 3 7 13 12 9 13 11 2 1 3 4 6 7 8 10 12 12 13 12 8 5 2 5 11 17 20 23 27 32 36 38 38 40 40 41 43 44 46 48 49 50 50 51 54 55 55 57 57 59 61 60 62 61 57 56 55 54 55 53 50 47 46 44 41 39 38 37
3 2 7 9 10 12 14 12 2 4 4 5 5 10 11 11 14 11 5 6 8 6 9 14 15 15 11 6 6 6 7 8 6 8 13 14 13 11 8 4 2 8 13 18 19 22 29 34 37 39 39 39 40 40 42 44 46 48 50 51 51 52 53 54 55 57 58 59 61 62 64 63 62 61 56 52 55 56 53 49 46 44 42 39 36 35
2 4 10 13 17 19 19 14 4 4 8 11 7 10 11 12 16 15 14 15 6 2 14 20 12 15 19 12 10 10 10 8 6 9 14 14 11 8 5 2 5 10 14 17 18 23 31 36 38 40 39 39 40 41 42 44 46 48 49 51 51 52 53 54 55 57 58 60 61 62 62 60 60 60 56 52 54 55 54 50 45 43 41 38 36 35
3 8 11 11 17 21 18 13 9 8 11 14 11 9 11 15 18 20 22 20 10 8 21 21 12 17 18 11 12 11 9 10 8 8 11 10 8 7 3 2 7 11 14 15 18 25 32 36 37 38 38 39 40 42 44 45 46 48 50 50 51 51 52 53 55 57 59 60 61 62 63 62 60 58 55 55 56 55 54 50 45 41 40 39 38 38
3 7 9 9 13 19 16 11 11 12 13 17 15 11 13 19 21 21 22 21 17 19 25 23 22 26 19 12 14 12 9 11 10 10 11 11 10 7 2 3 7 11 12 12 18 27 32 34 35 36 37 38 40 42 44 45 47 49 50 51 51 51 52 53 55 56 58 60 61 62 64 64 61 58 55 56 57 54 50 48 47 44 41 40 40 39
5 4 2 3 7 16 14 9 10 11 12 19 18 13 16 20 20 21 21 18 17 21 26 25 24 25 19 13 14 14 12 10 9 12 14 12 10 5 0 4 7 9 10 12 20 27 31 32 33 34 36 37 39 41 43 45 47 48 49 50 50 50 51 52 54 56 57 59 61 61 61 61 61 59 59 60 60 55 49 46 47 46 44 42 41 39
5 3 2 4 4 12 6 3 6 5 8 18 21 17 19 20 20 20 18 17 17 20 23 21 17 19 16 7 4 7 9 9 10 14 15 12 9 4 1 4 6 7 8 14 22 27 30 31 32 33 34 36 38 40 42 44 46 48 49 49 49 50 51 52 54 56 57 59 60 60 61 61 60 60 59 59 59 57 54 51 47 45 44 44 42 40
5 4 2 4 5 6 1 4 1 3 5 15 17 16 21 23 23 20 17 18 20 17 15 15 15 16 10 2 5 6 7 8 10 14 15 13 8 3 1 2 3 4 8 16 23 26 28 29 30 32 33 35 37 39 41 42 44 46 47 48 49 49 51 52 54 56 57 59 60 60 61 61 60 58 57 54 51 51 51 52 50 47 44 44 42 40
7 7 4 4 3 3 1 3 3 1 8 12 4 7 17 23 23 22 22 24 21 16 15 17 16 13 7 5 8 6 7 10 13 15 14 11 8 4 2 2 2 4 11 19 23 24 26 27 29 30 32 34 36 37 39 40 42 44 45 46 48 49 50 52 54 55 57 59 60 60 60 61 61 60 60 56 52 50 48 48 49 49 47 46 45 42
9 8 4 3 2 1 2 3 1 6 10 6 2 3 9 14 17 20 24 26 20 16 19 21 19 16 12 8 8 9 12 14 15 13 10 7 5 4 5 5 3 7 14 19 21 22 24 26 28 30 31 33 35 36 38 40 41 43 44 45 47 48 50 52 53 55 57 59 61 60 60 60 60 60 58 55 53 52 51 50 49 47 45 44 43 42
10 7 4 3 2 1 2 3 7 8 11 9 5 4 4 5 7 10 17 22 17 16 17 19 19 19 13 5 8 14 17 17 14 10 8 6 5 5 7 6 3 9 15 17 19 20 22 24 26 29 30 32 34 36 38 39 41 43 44 45 47 48 50 51 53 55 57 59 60 59 59 61 61 61 59 56 54 51 49 49 48 46 44 42 41 39
9 8 4 4 4 3 4 6 6 8 17 19 11 6 8 7 8 8 10 14 12 15 16 16 17 15 7 7 15 20 20 15 8 6 8 9 8 7 7 4 6 11 14 15 16 18 20 22 25 27 29 31 33 35 37 39 40 42 44 45 47 48 50 51 53 55 57 59 60 60 60 61 61 61 58 56 56 52 48 46 45 42 40 41 41 39
7 7 6 6 5 3 4 5 5 6 12 12 5 3 7 9 9 8 4 9 7 15 17 17 14 10 6 10 15 19 16 8 2 5 12 13 10 8 6 5 8 11 12 13 15 16 18 21 23 25 28 30 32 33 35 38 40 41 43 45 46 48 50 51 53 55 57 59 59 59 60 60 59 59 57 55 55 54 50 47 45 41 38 38 40 39
5 3 3 4 4 4 5 6 5 8 11 5 2 3 6 14 12 8 2 7 6 11 16 14 10 8 10 14 16 14 10 5 5 7 15 15 11 9 7 6 8 9 10 11 14 15 17 20 22 23 26 29 31 33 34 37 39 40 42 44 45 48 50 51 53 54 56 58 59 58 59 60 60 58 57 56 55 53 51 48 45 41 36 35 37 38
5 2 2 5 8 7 7 6 5 8 9 4 4 3 10 19 15 8 3 9 5 6 14 14 9 11 16 19 18 11 6 7 6 7 13 15 11 9 8 7 7 7 8 9 12 14 16 19 21 23 26 28 30 32 34 36 39 40 41 43 44 46 49 50 52 54 56 57 58 58 58 59 58 56 55 55 54 52 51 48 44 40 36 34 35 35
2 3 4 7 8 8 8 7 5 8 7 6 8 11 18 18 10 1 6 7 6 8 15 17 15 18 23 23 17 10 8 8 6 7 12 13 11 10 9 8 6 6 7 8 11 13 15 18 21 22 25 27 29 32 34 36 39 40 41 42 44 46 48 49 51 53 55 56 57 57 57 57 55 54 53 52 51 50 47 43 40 38 35 34 35 34
4 3 4 6 5 6 7 5 4 9 6 12 16 20 22 13 2 6 6 10 16 16 16 19 20 22 26 25 19 14 10 8 8 9 12 13 12 11 10 7 5 5 7 8 10 13 15 18 20 21 23 26 28 31 33 36 38 40 41 42 43 45 47 49 51 52 53 55 56 56 56 56 54 52 51 50 48 47 44 39 36 35 33 32 34 34
7 5 5 6 5 4 3 3 3 9 7 22 22 14 12 7 4 8 11 10 16 21 19 20 22 23 25 24 19 14 11 11 12 13 14 14 13 11 9 7 5 5 7 8 10 13 15 17 19 21 23 25 27 30 32 35 37 39 40 41 42 44 46 47 49 51 52 54 55 55 56 56 54 52 51 50 47 44 42 39 36 33 30 29 32 34
7 7 5 6 6 6 5 9 7 4 10 31 25 9 14 19 11 16 16 9 12 20 22 21 23 25 25 22 17 15 16 16 18 18 16 15 14 12 9 7 6 6 7 8 10 12 15 17 19 20 22 25 27 29 31 33 36 38 39 40 42 43 45 46 48 50 51 53 55 55 56 56 54 52 50 49 47 44 42 40 36 32 29 28 30 32
12 11 4 3 8 8 6 9 7 3 16 35 27 11 19 27 16 13 19 18 18 22 23 24 26 27 23 19 18 20 21 21 22 20 18 16 14 12 10 8 7 7 7 8 10 12 14 17 19 20 22 24 26 28 30 32 34 36 38 39 41 42 44 46 47 49 51 52 54 55 55 55 54 52 52 51 48 44 41 39 38 34 31 31 31 31
8 8 3 1 5 6 9 10 7 6 15 32 30 16 16 25 21 16 18 22 24 24 23 25 28 27 23 21 21 23 25 24 23 21 18 16 15 13 11 10 8 7 7 8 10 12 14 17 18 20 22 24 26 27 29 30 32 34 36 38 40 41 43 44 46 48 50 52 54 54 54 55 55 54 54 53 49 45 40 38 38 36 34 34 33 32
5 10 6 2 4 5 7 10 11 13 18 29 31 20 14 21 26 22 19 20 23 24 24 25 26 25 24 23 23 23 25 25 23 21 19 17 16 14 12 10 8 7 7 8 9 12 14 16 18 21 23 24 26 27 29 29 30 32 34 37 39 40 41 42 44 46 48 50 53 54 53 54 54 54 54 54 52 47 41 38 37 36 35 36 35 35
7 13 10 9 10 9 6 4 8 16 23 30 31 25 19 22 26 24 21 20 20 22 25 25 24 24 24 24 23 22 23 24 23 21 19 18 16 14 12 10 8 7 7 8 9 12 14 16 18 21 23 25 26 27 28 29 30 32 33 35 38 39 40 41 42 44 46 48 50 52 52 52 52 52 54 55 54 50 46 42 39 36 35 34 34 36
10 13 9 9 11 11 11 4 7 8 12 20 27 29 28 28 27 24 23 22 20 23 26 26 24 23 22 22 23 22 22 22 21 19 18 17 15 13 12 10 8 7 7 7 9 12 14 15 18 20 22 24 25 26 28 29 30 31 33 34 36 38 40 41 41 42 44 46 48 50 51 51 51 51 53 55 54 52 49 44 39 37 35 30 28 29
11 10 6 5 8 14 15 11 14 8 5 12 26 33 32 30 28 26 24 23 23 26 28 28 25 23 21 21 22 22 21 20 18 18 17 16 14 13 12 10 8 7 6 7 9 11 13 15 17 19 21 23 24 25 27 28 29 30 32 33 35 37 38 40 40 41 42 44 46 48 49 50 50 51 52 53 55 55 53 45 37 36 35 31 28 26
14 15 12 12 13 14 11 17 24 14 3 9 27 36 35 32 29 27 26 26 26 28 29 29 27 25 23 22 22 22 19 17 16 17 18 16 15 14 12 10 8 6 6 8 9 11 12 14 16 18 20 22 23 24 26 27 28 30 31 32 34 35 36 38 39 39 40 41 43 45 46 47 49 50 51 52 53 55 55 52 44 37 32 29 30 29
Wind_Direction
92 39 345 270 220 195 215 208 199 213 209 230 254 245 251 261 271 265 268 260 160 172 249 231 237 259 225 210 211 193 181 173 168 165 162 157 153 150 141 143 129 100 76 23 5 338 330 337 351 358 360 358 356 354 351 349 346 344 342 340 340 339 335 332 330 330 329 328 327 325 324 321 319 317 315 314 311 308 306 305 306 304 301 299 297 299
65 6 283 223 203 193 219 225 195 215 241 252 248 262 271 254 261 269 249 222 156 148 266 250 251 261 248 246 219 187 179 179 176 170 164 159 155 156 150 153 144 115 91 7 355 329 331 340 350 355 357 356 354 352 349 347 345 342 341 339 339 336 331 329 329 329 329 327 326 323 320 318 316 314 312 311 309 307 304 303 304 303 300 297 295 296
7 297 252 214 193 192 237 215 174 203 227 246 254 279 282 260 269 286 273 207 74 343 272 278 272 259 248 256 219 187 187 187 183 176 167 162 158 161 161 162 160 140 93 353 345 332 337 342 348 351 354 355 352 350 348 346 343 341 340 339 336 332 329 329 329 330 329 326 324 322 319 317 314 311 310 309 307 306 304 303 303 302 298 296 294 292
318 265 232 191 168 150 290 219 163 212 253 242 242 258 265 266 276 282 301 326 327 289 260 278 277 262 244 249 218 191 187 177 182 177 167 167 162 164 170 171 168 157 205 335 342 336 337 339 344 349 351 353 351 350 348 344 342 340 339 336 331 330 330 331 331 329 327 325 325 324 321 316 311 309 309 308 307 306 306 306 306 303 299 295 292 292
266 259 190 145 141 139 161 269 162 190 268 255 220 219 245 258 240 240 286 329 327 314 284 289 289 272 232 225 208 176 169 160 168 163 158 166 165 167 173 172 164 156 221 326 342 331 332 337 343 348 349 350 350 350 346 342 340 338 335 331 329 330 331 332 331 328 326 326 327 325 320 316 312 311 310 308 307 305 303 303 303 302 299 297 292 289
264 255 146 133 120 120 153 246 210 183 232 286 240 218 219 206 235 266 338 360 343 314 290 345 307 285 240 196 187 152 157 166 164 156 157 165 168 173 171 163 154 153 252 320 338 329 334 339 343 347 349 350 350 348 343 339 337 334 330 329 331 332 331 331 329 328 328 328 327 324 320 318 316 314 313 311 308 306 305 303 299 295 293 296 294 290
256 124 103 129 143 129 188 251 232 177 161 283 250 185 156 137 254 286 338 4 286 270 272 94 248 277 287 174 184 173 179 185 175 169 169 171 176 179 171 163 158 157 295 311 332 338 338 340 343 347 349 350 349 344 339 336 334 331 329 330 333 332 331 330 329 329 330 329 328 327 323 319 316 314 312 311 309 307 307 307 305 299 291 288 289 290
174 86 55 100 127 181 242 259 228 157 141 245 238 135 120 143 264 261 235 238 237 282 293 233 207 267 279 235 189 172 181 193 189 189 183 181 182 176 169 166 161 158 323 324 339 341 336 338 343 346 348 349 345 338 336 334 332 329 330 332 333 332 330 330 330 330 330 330 329 328 324 319 316 313 311 310 308 307 308 306 308 308 298 287 284 287
180 173 206 158 134 221 228 230 189 142 145 245 213 161 182 217 236 239 222 244 273 22 291 235 179 247 271 255 164 162 186 207 199 192 190 186 180 170 168 169 162 322 317 339 341 334 332 338 342 346 348 346 339 335 333 332 330 329 331 332 332 332 331 332 332 331 330 331 330 328 323 319 317 315 311 308 306 306 307 305 307 312 306 294 286 284
239 187 185 153 159 227 223 214 173 147 194 237 194 203 263 243 239 227 221 252 34 29 260 226 167 218 264 238 142 163 206 217 201 187 189 184 176 168 168 171 184 220 246 341 330 326 332 340 344 347 347 341 334 332 332 332 331 331 332 332 332 332 333 333 333 332 331 332 331 328 324 319 318 316 311 307 306 306 306 305 308 313 311 303 295 286
268 140 148 153 188 199 171 178 177 160 187 150 69 352 328 294 270 143 192 71 68 260 256 218 185 201 269 252 162 180 221 202 179 173 186 184 172 166 169 176 183 180 188 317 311 323 335 342 347 348 344 336 330 330 332 333 333 332 333 333 333 333 334 334 333 332 332 332 331 328 325 321 318 317 314 309 307 307 306 305 306 308 307 305 303 296
340 146 213 201 186 141 109 109 313 27 61 70 66 36 346 312 356 38 4 52 122 255 261 226 202 195 237 246 189 217 239 175 169 174 180 179 167 164 170 179 173 177 218 287 307 330 344 348 349 347 339 332 328 329 332 333 332 333 334 333 333 334 335 335 334 333 332 332 331 328 326 323 320 318 316 311 308 308 306 304 304 305 304 302 299 299
308 239 249 84 169 156 121 71 334 359 41 76 81 63 10 325 351 356 309 187 215 249 248 181 160 210 239 249 208 222 231 179 174 175 170 164 161 162 167 174 174 183 215 267 326 344 351 350 347 341 333 328 327 329 332 333 333 333 335 334 333 334 335 334 333 332 332 332 330 329 328 326 324 320 316 311 309 308 304 301 303 304 305 303 299 295
302 297 292 98 252 183 154 146 233 280 110 136 128 118 138 334 326 296 270 270 277 269 250 117 58 269 263 276 224 208 199 167 160 160 158 154 156 162 163 167 176 183 207 308 346 353 352 347 342 334 328 327 328 331 332 332 333 334 335 335 333 333 334 333 333 332 331 331 330 330 330 328 326 322 317 311 307 304 302 302 302 302 302 303 301 296
242 304 243 185 219 172 173 182 170 149 147 188 164 136 158 160 224 268 254 264 290 289 259 235 306 240 220 295 272 179 138 136 142 146 148 150 155 161 161 165 178 189 255 343 352 352 347 341 336 330 327 328 329 331 331 331 333 335 335 334 332 332 333 332 332 331 330 331 332 331 330 330 327 323 318 312 307 305 303 303 300 299 300 300 300 297
199 258 242 249 95 151 181 214 145 113 114 236 133 112 187 181 188 250 214 205 294 306 273 215 228 226 188 326 355 115 123 129 138 144 146 151 156 157 163 169 178 216 343 350 349 346 341 335 331 328 328 329 330 330 330 331 333 335 334 333 331 331 331 331 331 330 330 330 331 331 331 331 328 325 321 314 309 305 301 299 298 297 298 297 298 297
244 266 253 28 3 153 170 210 151 112 156 207 135 174 227 178 146 235 257 18 41 297 275 203 246 273 178 340 54 120 135 141 149 152 151 156 159 159 166 170 174 335 344 343 342 340 334 330 329 329 330 331 330 330 330 332 334 334 333 332 331 331 331 332 331 330 330 330 331 332 331 331 329 326 322 316 310 306 302 300 299 296 295 296 297 297
231 273 240 152 224 237 196 2 335 9 125 143 180 227 225 128 95 118 264 336 52 265 270 185 243 261 173 206 227 159 165 174 183 174 159 163 163 162 166 165 196 322 331 332 337 335 329 330 330 330 331 330 329 330 331 334 334 334 333 331 331 331 331 331 331 331 331 331 331 332 331 331 330 327 323 319 313 308 304 301 298 297 296 297 298 297
131 278 269 163 199 245 42 31 323 343 86 139 197 254 133 174 259 131 150 264 233 268 272 228 252 247 192 192 195 190 193 190 192 182 170 175 169 164 167 169 191 252 311 329 336 332 329 331 331 331 331 328 329 331 333 334 334 333 333 332 331 331 330 329 330 330 331 331 331 331 331 330 329 328 325 322 318 313 307 303 300 299 299 299 301 300
117 231 276 303 257 267 42 84 204 230 49 89 34 316 91 197 225 163 159 189 203 266 273 291 298 258 198 188 181 191 200 188 185 183 179 185 176 169 172 175 187 220 316 334 335 333 332 333 333 332 329 327 329 332 334 334 333 333 333 333 332 331 331 330 330 329 329 331 332 331 331 330 329 328 327 324 320 315 310 305 302 300 300 300 300 300
105 196 250 312 333 238 191 197 193 191 176 145 176 218 205 184 145 219 232 157 193 254 262 293 287 256 188 182 179 188 196 186 179 179 184 185 176 172 176 179 186 244 328 334 335 336 335 334 335 333 327 327 330 333 334 334 333 334 334 333 332 331 331 332 331 330 330 330 332 331 331 332 330 329 328 325 320 316 311 308 304 301 301 300 297 296
153 194 223 252 252 225 226 220 202 193 183 180 188 191 199 193 148 247 254 193 199 239 211 247 270 262 198 181 182 179 185 181 173 172 184 183 174 171 176 177 186 303 324 334 338 338 338 337 336 332 327 328 332 333 334 334 334 334 334 333 332 332 332 331 331 330 330 331 332 332 332 332 332 329 328 326 321 318 314 310 306 302 301 300 297 295
148 145 221 251 244 236 249 252 191 181 170 188 214 194 188 185 171 207 239 224 198 231 186 235 263 274 177 155 166 166 165 165 172 179 182 180 175 173 175 177 206 299 319 336 340 340 340 339 335 331 329 330 333 334 334 335 335 334 334 334 333 333 332 331 331 331 331 331 331 332 332 332 331 329 328 327 323 319 317 313 308 304 302 301 298 295
131 134 221 265 280 277 294 2 30 41 64 265 244 192 185 207 202 212 232 209 158 219 208 233 258 268 254 163 160 157 160 164 179 188 179 171 172 172 175 183 221 282 327 340 342 343 342 340 335 331 331 331 333 335 335 335 335 334 335 335 334 334 333 332 332 332 331 331 331 332 333 332 332 331 329 328 324 320 317 315 312 307 302 300 297 293
177 186 170 265 304 297 293 335 345 354 154 225 233 187 203 219 206 244 268 148 235 239 225 235 258 254 235 244 173 151 160 176 188 189 177 169 172 175 181 187 209 300 338 344 344 345 343 339 335 331 330 332 333 334 335 335 335 334 335 335 335 334 334 333 333 333 331 331 332 333 334 333 331 329 328 327 326 322 317 314 314 309 304 302 298 293
176 205 168 199 272 271 274 284 277 221 186 217 218 197 207 205 191 210 237 187 231 244 229 224 247 251 210 156 221 186 180 200 200 182 171 174 179 179 182 187 211 331 344 346 344 344 341 337 333 330 330 333 334 334 335 334 334 334 335 335 335 334 334 334 334 333 332 332 333 334 336 336 334 331 327 325 326 326 321 316 315 311 306 303 301 298
143 260 203 211 232 240 256 266 240 125 190 227 206 201 203 198 201 209 214 216 223 249 251 235 236 253 256 227 222 217 197 207 213 184 173 176 181 180 179 188 309 340 342 344 343 341 339 335 332 330 330 333 334 334 334 334 334 334 334 335 336 335 334 334 334 333 332 332 334 337 338 337 335 333 330 326 325 326 324 320 317 313 308 304 300 298
104 249 221 220 232 240 253 262 234 159 233 248 232 208 202 200 208 211 218 227 201 111 260 250 229 243 254 243 228 225 216 220 212 186 185 187 187 183 177 218 328 339 340 341 340 338 337 334 331 330 331 334 335 334 334 334 334 334 334 335 335 335 335 335 334 333 332 334 336 337 337 334 331 331 330 327 324 323 323 322 318 312 306 301 296 293
127 244 232 221 238 248 254 262 258 242 251 258 245 214 208 211 214 218 225 231 209 206 252 261 253 247 249 245 239 228 212 222 219 201 206 202 187 178 173 322 335 342 340 337 336 336 335 332 329 329 331 334 335 335 335 334 334 334 334 334 335 336 336 335 334 334 334 335 336 337 337 336 334 333 330 327 326 323 322 323 320 311 304 300 296 293
150 250 243 222 247 259 255 252 257 253 258 264 252 223 221 228 225 226 232 235 229 236 253 264 266 263 258 248 252 246 216 215 211 199 198 184 169 169 170 340 343 343 336 333 334 334 331 328 327 329 332 334 335 335 335 334 334 333 333 334 335 337 337 335 334 335 335 335 337 339 338 335 334 333 330 328 327 323 319 318 318 313 306 302 298 294
197 243 249 168 252 268 260 240 243 247 254 262 257 232 229 241 241 237 237 236 235 242 251 256 261 267 265 254 260 258 233 207 184 179 179 169 163 164 117 341 341 338 330 331 332 330 328 326 327 331 333 335 335 334 334 333 332 332 332 333 336 337 336 335 335 336 336 336 337 339 337 334 333 334 333 331 330 328 324 319 317 314 310 306 302 296
206 230 50 104 237 265 262 210 239 265 275 268 262 241 230 237 241 238 234 229 225 233 247 253 254 260 264 256 238 227 200 177 171 172 164 157 164 175 302 332 334 329 324 328 328 327 326 326 329 332 334 335 334 334 334 332 331 331 332 334 336 336 336 336 337 338 337 338 338 338 338 337 335 332 331 330 327 326 327 325 320 316 313 311 306 300
177 195 177 146 222 268 9 107 124 35 311 270 256 228 221 228 234 240 244 237 225 223 238 246 242 251 264 181 168 188 170 168 178 169 161 161 168 173 300 309 317 313 321 328 327 326 325 326 330 332 333 334 334 333 333 331 330 330 331 334 336 336 337 338 339 339 338 338 339 339 338 337 334 333 333 333 329 325 325 324 321 319 317 314 311 305
183 196 202 172 200 255 142 108 89 47 264 266 263 192 208 217 223 231 240 239 229 217 227 241 249 258 261 192 187 190 176 179 177 167 166 172 172 168 207 215 243 300 320 326 325 324 326 328 332 333 333 334 332 331 331 329 329 330 331 334 336 337 338 339 339 340 339 339 340 341 339 337 335 334 335 336 334 330 327 324 322 321 318 315 313 309
183 193 200 180 180 200 132 88 153 237 249 250 93 165 210 212 213 222 239 244 234 222 231 244 252 254 249 234 203 184 173 165 161 161 165 174 185 184 181 184 225 305 320 324 323 325 328 331 333 334 334 333 331 331 330 329 329 331 332 336 337 338 339 340 341 341 340 340 342 343 341 338 335 335 336 337 336 332 328 326 324 321 318 315 312 308
176 184 184 170 174 167 141 180 213 258 300 291 241 177 166 199 199 215 252 254 231 219 230 237 244 249 248 221 167 166 159 144 138 151 163 172 186 178 172 185 263 312 319 322 323 327 331 333 333 333 332 332 332 331 330 329 331 332 334 337 338 339 340 341 342 342 341 342 344 344 343 341 339 338 338 338 336 332 329 326 324 321 319 316 313 309
175 179 177 183 202 181 178 217 239 308 311 291 262 177 165 192 174 176 253 263 214 201 220 229 236 243 224 147 144 148 146 137 126 143 161 171 177 173 179 217 294 314 318 321 324 330 333 332 333 333 332 332 331 330 330 331 332 333 336 338 340 340 341 342 343 343 342 343 345 346 346 343 340 339 338 338 336 334 332 329 325 323 320 317 314 312
184 186 176 189 213 168 174 239 264 282 277 269 256 209 191 182 149 138 250 275 201 186 208 221 225 216 157 139 147 145 144 151 190 177 172 177 184 184 199 259 299 312 318 321 326 331 333 333 334 334 333 332 331 331 332 332 333 335 337 340 341 340 341 343 344 344 343 345 347 348 347 344 341 341 341 340 337 334 333 330 327 325 323 320 317 313
186 203 170 195 220 175 188 226 224 240 254 233 178 241 160 142 126 92 1 273 224 187 201 209 205 179 151 153 160 151 146 185 238 198 181 184 193 199 220 272 295 306 314 319 326 332 333 334 335 335 334 332 332 334 335 334 335 337 339 342 342 341 343 344 345 345 345 346 348 349 349 346 344 344 343 341 338 336 333 330 329 328 326 324 321 316
180 186 168 212 221 198 201 224 224 247 254 184 149 193 144 137 125 82 317 262 243 185 194 192 176 165 160 158 159 156 173 207 220 197 183 188 202 215 236 267 281 294 310 318 325 330 331 333 334 335 335 334 335 338 337 336 337 339 341 343 343 343 344 344 346 347 347 347 349 350 350 348 345 345 344 341 339 336 333 330 330 331 330 329 327 322
191 193 191 216 225 209 207 223 248 265 248 165 155 161 142 128 116 137 241 223 174 173 185 180 174 171 165 163 165 178 202 201 190 178 181 193 213 228 245 263 270 290 312 318 323 328 330 332 333 335 336 337 338 340 339 337 339 340 343 344 344 345 345 345 347 349 348 349 351 352 351 349 346 346 346 342 338 336 334 333 334 333 332 333 333 328
177 178 206 219 218 211 218 224 269 280 240 159 157 158 145 133 229 235 182 141 148 167 178 178 178 174 171 173 177 182 186 181 178 183 188 200 219 229 240 255 268 291 307 312 320 325 328 331 333 335 337 339 341 342 340 339 340 342 344 345 345 346 346 346 348 350 350 351 353 353 353 352 349 349 348 345 343 341 340 342 341 338 336 338 338 335
166 157 200 213 184 173 216 186 226 274 203 150 147 153 162 185 213 155 136 135 156 167 172 177 178 175 174 177 177 178 182 185 190 193 194 204 218 223 231 245 261 279 296 309 316 322 327 330 333 337 340 343 344 344 343 341 342 344 345 346 346 346 347 348 349 351 352 353 355 356 355 354 353 352 351 350 348 347 348 349 348 345 345 345 344 341
172 171 190 207 174 152 187 197 205 273 163 155 155 169 198 202 180 139 147 166 168 169 172 175 177 179 179 178 180 186 189 190 193 196 202 213 218 217 223 238 251 267 290 308 314 322 328 329 333 340 344 345 346 346 345 343 343 345 346 346 346 347 348 349 351 352 354 356 358 358 357 357 356 354 353 354 353 352 353 355 354 354 355 354 351 346
198 189 166 186 186 178 211 217 198 145 164 173 180 192 191 194 191 162 166 172 170 175 179 176 177 180 182 185 189 192 193 194 198 203 211 216 214 212 220 230 241 261 286 304 312 322 328 328 334 343 347 348 347 347 347 346 345 346 347 347 347 348 349 351 351 353 356 358 0 360 359 359 359 357 357 358 357 357 359 0 0 0 1 0 356 351
209 190 134 84 195 221 270 253 202 156 174 185 195 206 192 188 190 183 177 176 177 182 184 184 184 184 184 188 190 192 197 200 202 209 215 213 210 214 221 227 238 259 282 299 313 324 327 330 337 344 348 349 348 347 348 349 348 348 348 348 348 349 351 352 353 355 357 360 2 2 1 1 0 0 1 360 359 1 5 6 5 4 4 3 359 353
210 187 189 212 176 188 251 236 194 183 187 189 196 206 201 191 192 192 190 187 186 189 192 193 192 189 187 191 192 195 200 201 203 210 212 208 209 216 222 228 239 256 280 300 317 325 326 332 342 347 348 349 349 349 350 350 350 350 350 350 349 349 352 354 356 357 359 2 4 4 3 3 3 2 3 2 1 3 7 11 11 8 6 4 358 353
181 166 184 221 210 201 235 229 174 186 195 194 195 199 198 197 197 196 198 199 197 199 199 196 193 189 190 195 198 198 198 200 205 210 207 204 210 218 222 230 240 255 282 305 319 324 327 337 345 348 348 349 349 350 350 351 353 353 352 352 351 350 352 355 358 360 1 4 6 6 6 6 5 5 5 4 3 6 10 13 14 12 10 8 1 353
137 152 178 208 210 227 252 234 137 168 205 204 200 200 201 203 200 195 198 203 203 200 196 191 189 192 194 198 201 198 197 201 206 207 203 204 211 217 224 232 241 257 284 307 319 323 330 341 347 348 349 349 350 350 351 352 354 354 354 354 353 352 353 355 359 2 3 5 8 8 8 8 8 9 9 5 4 8 13 15 17 16 13 14 13 1
142 180 186 157 189 229 239 199 162 170 227 205 200 201 202 203 200 192 192 198 200 198 194 188 187 192 198 203 203 201 200 203 204 203 204 207 213 219 226 234 244 261 289 311 318 323 334 344 347 348 349 349 349 350 352 354 354 355 356 355 355 355 355 356 360 3 5 7 10 10 9 10 10 12 13 10 7 8 10 14 23 26 20 18 22 17
189 202 182 178 211 232 219 184 180 192 218 183 194 202 203 201 198 193 194 200 201 198 195 192 190 194 199 202 204 204 206 208 206 204 206 209 215 221 226 234 247 268 295 309 316 328 339 345 347 348 349 349 350 352 354 354 355 356 357 357 357 358 358 358 1 4 5 9 12 12 12 13 13 14 15 15 14 13 11 10 17 27 30 29 28 25